Time,TemperatureF,DewpointF,PressureIn,WindDirection,WindDirectionDegrees,WindSpeedMPH,WindSpeedGustMPH,Humidity,HourlyPrecipIn,Conditions,Clouds,dailyrainin,SolarRadiationWatts/m^2,SoftwareType,DateUTC
2013-10-24 00:01:00,34.0,30.0,30.21,NW,306,2.0,3.0,85,0.00,,,0.02,0,Wunderground v.1.15,2013-10-24 05:01:00,
2013-10-24 00:11:00,34.2,30.4,30.21,WNW,303,2.0,3.0,86,0.00,,,0.02,0,Wunderground v.1.15,2013-10-24 05:11:00,
2013-10-24 00:21:00,34.3,30.5,30.22,NW,314,2.0,2.0,86,0.00,,,0.02,0,Wunderground v.1.15,2013-10-24 05:21:00,
2013-10-24 00:30:00,34.0,30.3,30.21,WNW,295,2.0,5.0,86,0.00,,,0.02,0,Wunderground v.1.15,2013-10-24 05:30:00,
2013-10-24 00:40:00,33.4,29.9,30.21,WNW,283,3.0,4.0,87,0.00,,,0.02,0,Wunderground v.1.15,2013-10-24 05:40:00,
2013-10-24 00:51:00,33.2,29.8,30.22,WNW,288,3.0,3.0,87,0.00,,,0.03,0,Wunderground v.1.15,2013-10-24 05:51:00,
2013-10-24 01:01:00,33.3,30.1,30.22,NW,304,3.0,3.0,88,0.00,,,0.03,0,Wunderground v.1.15,2013-10-24 06:01:00,
2013-10-24 01:11:00,33.6,30.1,30.22,WNW,292,3.0,3.0,87,0.00,,,0.03,0,Wunderground v.1.15,2013-10-24 06:11:00,
2013-10-24 01:20:00,33.9,29.9,30.22,NW,318,3.0,8.0,85,0.00,,,0.03,0,Wunderground v.1.15,2013-10-24 06:20:00,
2013-10-24 01:30:00,34.3,30.0,30.23,NNW,340,4.0,8.0,84,0.00,,,0.03,0,Wunderground v.1.15,2013-10-24 06:30:00,
2013-10-24 01:41:00,34.4,29.8,30.23,NW,319,5.0,5.0,83,0.00,,,0.03,0,Wunderground v.1.15,2013-10-24 06:41:00,
2013-10-24 01:51:00,34.4,29.8,30.23,NW,306,5.0,11.0,83,0.00,,,0.03,0,Wunderground v.1.15,2013-10-24 06:51:00,
2013-10-24 02:01:00,34.4,29.8,30.24,NNW,333,6.0,10.0,83,0.00,,,0.03,0,Wunderground v.1.15,2013-10-24 07:01:00,
2013-10-24 02:10:00,34.4,29.8,30.24,NNW,333,7.0,11.0,83,0.00,,,0.03,0,Wunderground v.1.15,2013-10-24 07:10:00,
2013-10-24 02:20:00,34.4,30.1,30.24,NW,323,6.0,11.0,84,0.00,,,0.03,0,Wunderground v.1.15,2013-10-24 07:20:00,
2013-10-24 02:31:00,34.5,30.2,30.24,NNW,335,7.0,12.0,84,0.00,,,0.03,0,Wunderground v.1.15,2013-10-24 07:31:00,
2013-10-24 02:41:00,34.5,30.2,30.25,NNW,338,6.0,12.0,84,0.00,,,0.00,0,Wunderground v.1.15,2013-10-24 07:41:00,
2013-10-24 02:50:00,34.4,30.4,30.25,NW,318,6.0,6.0,85,0.00,,,0.00,0,Wunderground v.1.15,2013-10-24 07:50:00,
2013-10-24 03:00:00,34.4,30.6,30.25,NNW,342,6.0,10.0,86,0.00,,,0.00,0,Wunderground v.1.15,2013-10-24 08:00:00,
2013-10-24 03:11:00,33.9,30.2,30.25,NNW,337,5.0,5.0,86,0.00,,,0.00,0,Wunderground v.1.15,2013-10-24 08:11:00,
2013-10-24 03:21:00,33.4,29.9,30.25,NW,323,3.0,9.0,87,0.00,,,0.00,0,Wunderground v.1.15,2013-10-24 08:21:00,
2013-10-24 03:30:00,33.0,29.8,30.25,NW,313,5.0,8.0,88,0.00,,,0.00,0,Wunderground v.1.15,2013-10-24 08:30:00,
2013-10-24 03:41:00,32.9,29.7,30.26,NNW,337,6.0,8.0,88,0.00,,,0.00,0,Wunderground v.1.15,2013-10-24 08:41:00,
2013-10-24 03:51:00,32.6,29.7,30.26,NNW,344,6.0,6.0,89,0.00,,,0.00,0,Wunderground v.1.15,2013-10-24 08:51:00,
2013-10-24 04:00:00,32.5,29.6,30.26,NNW,337,5.0,10.0,89,0.00,,,0.00,0,Wunderground v.1.15,2013-10-24 09:00:00,
2013-10-24 04:10:00,32.6,29.7,30.26,NNW,327,6.0,10.0,89,0.00,,,0.00,0,Wunderground v.1.15,2013-10-24 09:10:00,
2013-10-24 04:21:00,32.4,29.5,30.26,NW,313,5.0,5.0,89,0.00,,,0.00,0,Wunderground v.1.15,2013-10-24 09:21:00,
2013-10-24 04:31:00,32.2,29.3,30.26,NNW,331,5.0,10.0,89,0.00,,,0.00,0,Wunderground v.1.15,2013-10-24 09:31:00,
2013-10-24 04:40:00,32.0,29.4,30.27,NW,312,5.0,10.0,90,0.00,,,0.00,0,Wunderground v.1.15,2013-10-24 09:40:00,
2013-10-24 04:51:00,31.9,29.3,30.27,NNW,328,5.0,8.0,90,0.00,,,0.00,0,Wunderground v.1.15,2013-10-24 09:51:00,
2013-10-24 05:01:00,31.9,29.3,30.27,NW,315,5.0,9.0,90,0.00,,,0.00,0,Wunderground v.1.15,2013-10-24 10:01:00,
2013-10-24 05:11:00,32.2,29.6,30.28,NW,326,5.0,5.0,90,0.00,,,0.00,0,Wunderground v.1.15,2013-10-24 10:11:00,
2013-10-24 05:20:00,32.4,29.8,30.28,NNW,331,5.0,5.0,90,0.00,,,0.00,0,Wunderground v.1.15,2013-10-24 10:20:00,
2013-10-24 05:31:00,32.5,29.9,30.29,NNW,327,5.0,10.0,90,0.00,,,0.00,0,Wunderground v.1.15,2013-10-24 10:31:00,
2013-10-24 05:41:00,32.5,29.9,30.29,North,350,5.0,5.0,90,0.00,,,0.00,0,Wunderground v.1.15,2013-10-24 10:41:00,
2013-10-24 05:50:00,32.5,29.9,30.29,NW,319,5.0,8.0,90,0.00,,,0.00,0,Wunderground v.1.15,2013-10-24 10:50:00,
2013-10-24 06:00:00,32.6,30.3,30.30,NW,313,5.0,5.0,91,0.00,,,0.00,0,Wunderground v.1.15,2013-10-24 11:00:00,
2013-10-24 06:11:00,32.2,29.6,30.30,NW,324,5.0,9.0,90,0.00,,,0.00,0,Wunderground v.1.15,2013-10-24 11:11:00,
2013-10-24 06:20:00,31.8,29.5,30.30,NW,324,4.0,9.0,91,0.00,,,0.00,0,Wunderground v.1.15,2013-10-24 11:20:00,
2013-10-24 06:30:00,31.8,29.5,30.30,NW,323,4.0,8.0,91,0.00,,,0.00,0,Wunderground v.1.15,2013-10-24 11:30:00,
2013-10-24 06:40:00,31.5,29.2,30.31,NW,315,3.0,7.0,91,0.00,,,0.00,0,Wunderground v.1.15,2013-10-24 11:40:00,
2013-10-24 06:51:00,31.2,29.1,30.31,NW,317,4.0,4.0,92,0.00,,,0.00,0,Wunderground v.1.15,2013-10-24 11:51:00,
2013-10-24 07:01:00,30.9,28.9,30.31,NW,321,3.0,8.0,92,0.00,,,0.00,0,Wunderground v.1.15,2013-10-24 12:01:00,
2013-10-24 07:10:00,30.9,28.9,30.31,NW,325,3.0,6.0,92,0.00,,,0.00,0,Wunderground v.1.15,2013-10-24 12:10:00,
2013-10-24 07:20:00,30.9,28.9,30.32,NNW,329,3.0,6.0,92,0.00,,,0.00,0,Wunderground v.1.15,2013-10-24 12:20:00,
2013-10-24 07:30:00,30.9,28.9,30.32,NW,318,4.0,4.0,92,0.00,,,0.00,0,Wunderground v.1.15,2013-10-24 12:30:00,
2013-10-24 07:40:00,31.1,29.0,30.32,NW,304,4.0,8.0,92,0.00,,,0.00,0,Wunderground v.1.15,2013-10-24 12:40:00,
2013-10-24 07:51:00,31.3,29.2,30.32,NW,321,4.0,8.0,92,0.00,,,0.00,5,Wunderground v.1.15,2013-10-24 12:51:00,
2013-10-24 08:01:00,31.6,29.5,30.33,NW,325,4.0,8.0,92,0.00,,,0.00,11,Wunderground v.1.15,2013-10-24 13:01:00,
2013-10-24 08:10:00,31.5,29.4,30.33,NW,323,4.0,4.0,92,0.00,,,0.00,23,Wunderground v.1.15,2013-10-24 13:10:00,
2013-10-24 08:20:00,31.4,29.3,30.33,NW,316,4.0,8.0,92,0.00,,,0.00,23,Wunderground v.1.15,2013-10-24 13:20:00,
2013-10-24 08:31:00,31.4,29.3,30.34,NW,324,5.0,7.0,92,0.00,,,0.00,25,Wunderground v.1.15,2013-10-24 13:31:00,
2013-10-24 08:41:00,31.5,29.4,30.35,NW,311,5.0,5.0,92,0.00,,,0.00,30,Wunderground v.1.15,2013-10-24 13:41:00,
2013-10-24 08:50:00,31.9,29.8,30.35,WNW,288,5.0,5.0,92,0.00,,,0.00,32,Wunderground v.1.15,2013-10-24 13:50:00,
2013-10-24 09:00:00,32.3,30.0,30.35,NW,319,5.0,5.0,91,0.00,,,0.00,151,Wunderground v.1.15,2013-10-24 14:00:00,
2013-10-24 09:10:00,32.8,30.5,30.35,NW,321,5.0,11.0,91,0.00,,,0.00,67,Wunderground v.1.15,2013-10-24 14:10:00,
2013-10-24 09:21:00,33.4,30.8,30.35,WNW,284,4.0,9.0,90,0.00,,,0.00,114,Wunderground v.1.15,2013-10-24 14:21:00,
2013-10-24 09:30:00,34.1,31.5,30.35,WNW,301,6.0,9.0,90,0.00,,,0.00,56,Wunderground v.1.15,2013-10-24 14:30:00,
2013-10-24 09:41:00,34.9,32.3,30.36,NNW,341,7.0,11.0,90,0.00,,,0.00,271,Wunderground v.1.15,2013-10-24 14:41:00,
2013-10-24 09:51:00,35.8,32.6,30.36,WNW,297,8.0,8.0,88,0.00,,,0.00,311,Wunderground v.1.15,2013-10-24 14:51:00,
2013-10-24 10:01:00,36.6,33.1,30.36,NNW,327,6.0,15.0,87,0.00,,,0.00,90,Wunderground v.1.15,2013-10-24 15:01:00,
2013-10-24 10:10:00,37.0,33.5,30.36,NNW,328,8.0,8.0,87,0.00,,,0.00,355,Wunderground v.1.15,2013-10-24 15:10:00,
2013-10-24 10:20:00,37.4,33.6,30.37,NNW,341,8.0,12.0,86,0.00,,,0.01,49,Wunderground v.1.15,2013-10-24 15:20:00,
2013-10-24 10:31:00,38.2,34.4,30.37,NW,308,9.0,9.0,86,0.00,,,0.01,65,Wunderground v.1.15,2013-10-24 15:31:00,
2013-10-24 10:40:00,39.0,34.9,30.38,NNW,341,10.0,16.0,85,0.00,,,0.01,93,Wunderground v.1.15,2013-10-24 15:40:00,
2013-10-24 10:50:00,40.0,35.6,30.38,NNW,332,8.0,16.0,84,0.00,,,0.01,457,Wunderground v.1.15,2013-10-24 15:50:00,
2013-10-24 11:00:00,40.7,35.3,30.38,NNW,334,10.0,10.0,81,0.00,,,0.01,503,Wunderground v.1.15,2013-10-24 16:00:00,
2013-10-24 11:11:00,41.0,33.7,30.38,NNE,15,9.0,17.0,75,0.00,,,0.01,489,Wunderground v.1.15,2013-10-24 16:11:00,
2013-10-24 11:21:00,42.0,34.3,30.39,North,5,10.0,10.0,74,0.00,,,0.02,538,Wunderground v.1.15,2013-10-24 16:21:00,
2013-10-24 11:30:00,42.1,33.4,30.38,North,360,9.0,17.0,71,0.09,,,0.04,524,Wunderground v.1.15,2013-10-24 16:30:00,
2013-10-24 11:40:00,43.0,34.2,30.38,NNW,331,9.0,17.0,71,0.06,,,0.05,547,Wunderground v.1.15,2013-10-24 16:40:00,
2013-10-24 11:50:00,43.0,34.9,30.38,NW,319,10.0,16.0,73,0.00,,,0.05,561,Wunderground v.1.15,2013-10-24 16:50:00,
2013-10-24 12:01:00,43.1,34.3,30.39,North,5,9.0,9.0,71,0.00,,,0.06,585,Wunderground v.1.15,2013-10-24 17:01:00,
2013-10-24 12:11:00,43.6,34.8,30.39,NNW,333,9.0,9.0,71,0.00,,,0.06,657,Wunderground v.1.15,2013-10-24 17:11:00,
2013-10-24 12:20:00,44.4,34.1,30.38,North,355,9.0,17.0,67,0.00,,,0.06,643,Wunderground v.1.15,2013-10-24 17:20:00,
2013-10-24 12:30:00,44.9,33.5,30.38,NW,317,10.0,10.0,64,0.00,,,0.06,650,Wunderground v.1.15,2013-10-24 17:30:00,
2013-10-24 12:41:00,45.3,32.6,30.38,WNW,298,10.0,17.0,61,0.00,,,0.07,91,Wunderground v.1.15,2013-10-24 17:41:00,
2013-10-24 12:51:00,45.3,33.8,30.38,NNW,337,9.0,9.0,64,0.00,,,0.07,714,Wunderground v.1.15,2013-10-24 17:51:00,
2013-10-24 13:00:00,45.7,32.6,30.38,NNW,340,11.0,19.0,60,0.00,,,0.07,777,Wunderground v.1.15,2013-10-24 18:00:00,
2013-10-24 13:10:00,45.2,32.1,30.38,NNW,345,10.0,10.0,60,0.00,,,0.07,759,Wunderground v.1.15,2013-10-24 18:10:00,
2013-10-24 13:21:00,45.8,32.7,30.37,NW,320,11.0,20.0,60,0.00,,,0.07,225,Wunderground v.1.15,2013-10-24 18:21:00,
2013-10-24 13:31:00,45.7,32.6,30.37,NW,311,9.0,19.0,60,0.00,,,0.07,243,Wunderground v.1.15,2013-10-24 18:31:00,
2013-10-24 13:40:00,46.1,33.0,30.37,NW,323,11.0,20.0,60,0.00,,,0.07,299,Wunderground v.1.15,2013-10-24 18:40:00,
2013-10-24 13:50:00,46.0,31.2,30.37,NNW,333,10.0,10.0,56,0.00,,,0.07,274,Wunderground v.1.15,2013-10-24 18:50:00,
2013-10-24 14:00:00,45.9,31.9,30.36,NNW,327,9.0,19.0,58,0.00,,,0.07,165,Wunderground v.1.15,2013-10-24 19:00:00,
2013-10-24 14:11:00,45.5,32.0,30.36,NW,326,9.0,18.0,59,0.00,,,0.07,185,Wunderground v.1.15,2013-10-24 19:11:00,
2013-10-24 14:21:00,46.0,31.6,30.36,NW,323,9.0,21.0,57,0.00,,,0.07,237,Wunderground v.1.15,2013-10-24 19:21:00,
2013-10-24 14:31:00,46.0,32.0,30.36,NNW,345,9.0,14.0,58,0.00,,,0.07,183,Wunderground v.1.15,2013-10-24 19:31:00,
2013-10-24 14:41:00,46.2,31.4,30.36,NNW,331,9.0,18.0,56,0.00,,,0.07,255,Wunderground v.1.15,2013-10-24 19:41:00,
2013-10-24 14:50:00,46.4,30.2,30.35,NW,325,11.0,11.0,53,0.00,,,0.07,188,Wunderground v.1.15,2013-10-24 19:50:00,
2013-10-24 15:00:00,47.4,31.6,30.35,NNW,344,9.0,9.0,54,0.00,,,0.07,255,Wunderground v.1.15,2013-10-24 20:00:00,
2013-10-24 15:10:00,47.0,31.7,30.35,NNW,347,9.0,9.0,55,0.00,,,0.07,223,Wunderground v.1.15,2013-10-24 20:10:00,
2013-10-24 15:21:00,46.3,30.5,30.36,NNW,340,9.0,18.0,54,0.00,,,0.07,190,Wunderground v.1.15,2013-10-24 20:21:00,
2013-10-24 15:31:00,46.8,31.5,30.36,North,355,9.0,16.0,55,0.00,,,0.07,197,Wunderground v.1.15,2013-10-24 20:31:00,
2013-10-24 15:41:00,46.6,31.7,30.36,NNW,336,9.0,9.0,56,0.00,,,0.07,181,Wunderground v.1.15,2013-10-24 20:41:00,
2013-10-24 15:50:00,46.6,31.3,30.35,NNW,327,8.0,13.0,55,0.00,,,0.07,139,Wunderground v.1.15,2013-10-24 20:50:00,
2013-10-24 16:00:00,46.4,31.5,30.35,NW,325,9.0,9.0,56,0.00,,,0.07,130,Wunderground v.1.15,2013-10-24 21:00:00,
2013-10-24 16:10:00,46.5,32.1,30.35,NNW,331,8.0,8.0,57,0.00,,,0.07,179,Wunderground v.1.15,2013-10-24 21:10:00,
2013-10-24 16:21:00,46.8,32.4,30.35,NW,317,9.0,17.0,57,0.00,,,0.07,134,Wunderground v.1.15,2013-10-24 21:21:00,
2013-10-24 16:30:00,46.7,31.4,30.35,NNW,338,8.0,8.0,55,0.00,,,0.07,127,Wunderground v.1.15,2013-10-24 21:30:00,
2013-10-24 16:40:00,46.8,31.5,30.35,NW,317,7.0,15.0,55,0.00,,,0.07,95,Wunderground v.1.15,2013-10-24 21:40:00,
2013-10-24 16:51:00,46.3,31.0,30.36,NW,310,7.0,14.0,55,0.00,,,0.07,84,Wunderground v.1.15,2013-10-24 21:51:00,
2013-10-24 17:00:00,45.8,30.5,30.36,NW,306,7.0,7.0,55,0.00,,,0.07,33,Wunderground v.1.15,2013-10-24 22:00:00,
2013-10-24 17:10:00,45.1,31.2,30.36,NW,304,6.0,6.0,58,0.00,,,0.07,46,Wunderground v.1.15,2013-10-24 22:10:00,
2013-10-24 17:21:00,45.3,31.4,30.36,NW,315,5.0,12.0,58,0.00,,,0.07,39,Wunderground v.1.15,2013-10-24 22:21:00,
2013-10-24 17:30:00,45.9,31.5,30.36,NNW,329,6.0,12.0,57,0.00,,,0.07,53,Wunderground v.1.15,2013-10-24 22:30:00,
2013-10-24 17:40:00,46.1,30.8,30.36,NNW,333,7.0,7.0,55,0.00,,,0.07,23,Wunderground v.1.15,2013-10-24 22:40:00,
2013-10-24 17:51:00,45.3,31.4,30.36,NW,315,5.0,14.0,58,0.00,,,0.07,18,Wunderground v.1.15,2013-10-24 22:51:00,
2013-10-24 18:01:00,44.8,31.3,30.36,North,355,5.0,5.0,59,0.00,,,0.07,14,Wunderground v.1.15,2013-10-24 23:01:00,
2013-10-24 18:10:00,43.9,31.3,30.36,NW,317,3.0,3.0,61,0.00,,,0.07,9,Wunderground v.1.15,2013-10-24 23:10:00,
2013-10-24 18:21:00,42.8,31.1,30.36,NW,323,1.0,1.0,63,0.00,,,0.07,5,Wunderground v.1.15,2013-10-24 23:21:00,
2013-10-24 18:31:00,42.0,31.1,30.37,NW,322,1.0,1.0,65,0.00,,,0.07,0,Wunderground v.1.15,2013-10-24 23:31:00,
2013-10-24 18:41:00,41.1,31.0,30.37,NW,321,1.0,1.0,67,0.00,,,0.07,0,Wunderground v.1.15,2013-10-24 23:41:00,
2013-10-24 18:50:00,40.7,30.6,30.37,WNW,299,2.0,2.0,67,0.00,,,0.07,0,Wunderground v.1.15,2013-10-24 23:50:00,
2013-10-24 19:01:00,41.0,30.1,30.37,NW,307,2.0,4.0,65,0.00,,,0.07,0,Wunderground v.1.15,2013-10-25 00:01:00,
2013-10-24 19:11:00,40.1,30.0,30.38,WNW,297,3.0,3.0,67,0.00,,,0.07,0,Wunderground v.1.15,2013-10-25 00:11:00,
2013-10-24 19:21:00,39.4,30.1,30.38,WNW,294,2.0,4.0,69,0.00,,,0.07,0,Wunderground v.1.15,2013-10-25 00:21:00,
2013-10-24 19:30:00,39.4,30.1,30.38,West,276,3.0,3.0,69,0.00,,,0.07,0,Wunderground v.1.15,2013-10-25 00:30:00,
2013-10-24 19:40:00,39.3,30.3,30.38,West,279,3.0,6.0,70,0.00,,,0.07,0,Wunderground v.1.15,2013-10-25 00:40:00,
2013-10-24 19:51:00,39.0,30.4,30.38,West,266,3.0,6.0,71,0.00,,,0.07,0,Wunderground v.1.15,2013-10-25 00:51:00,
2013-10-24 20:00:00,38.4,30.2,30.38,WNW,299,3.0,6.0,72,0.00,,,0.07,0,Wunderground v.1.15,2013-10-25 01:00:00,
2013-10-24 20:11:00,37.9,30.4,30.38,WNW,286,3.0,6.0,74,0.00,,,0.07,0,Wunderground v.1.15,2013-10-25 01:11:00,
2013-10-24 20:21:00,37.7,30.2,30.39,West,261,3.0,6.0,74,0.00,,,0.07,0,Wunderground v.1.15,2013-10-25 01:21:00,
2013-10-24 20:30:00,37.4,30.2,30.39,WNW,292,3.0,6.0,75,0.00,,,0.07,0,Wunderground v.1.15,2013-10-25 01:30:00,
2013-10-24 20:40:00,37.0,30.1,30.39,West,281,3.0,7.0,76,0.00,,,0.07,0,Wunderground v.1.15,2013-10-25 01:40:00,
2013-10-24 20:50:00,36.7,29.8,30.39,WNW,293,3.0,5.0,76,0.00,,,0.07,0,Wunderground v.1.15,2013-10-25 01:50:00,
2013-10-24 21:00:00,36.4,29.9,30.39,WNW,284,3.0,3.0,77,0.00,,,0.07,0,Wunderground v.1.15,2013-10-25 02:00:00,
2013-10-24 21:11:00,36.3,29.5,30.39,WNW,282,3.0,5.0,76,0.00,,,0.07,0,Wunderground v.1.15,2013-10-25 02:11:00,
2013-10-24 21:21:00,36.2,29.7,30.39,West,269,3.0,3.0,77,0.00,,,0.07,0,Wunderground v.1.15,2013-10-25 02:21:00,
2013-10-24 21:30:00,36.2,29.7,30.39,West,271,3.0,3.0,77,0.00,,,0.07,0,Wunderground v.1.15,2013-10-25 02:30:00,
2013-10-24 21:41:00,35.8,29.3,30.39,West,276,3.0,6.0,77,0.00,,,0.07,0,Wunderground v.1.15,2013-10-25 02:41:00,
2013-10-24 21:51:00,35.7,29.2,30.39,West,278,3.0,3.0,77,0.00,,,0.07,0,Wunderground v.1.15,2013-10-25 02:51:00,
2013-10-24 22:00:00,35.3,29.1,30.40,WNW,288,3.0,6.0,78,0.00,,,0.07,0,Wunderground v.1.15,2013-10-25 03:00:00,
2013-10-24 22:11:00,35.1,28.9,30.40,West,275,3.0,8.0,78,0.00,,,0.07,0,Wunderground v.1.15,2013-10-25 03:11:00,
2013-10-24 22:21:00,35.0,28.8,30.40,West,274,3.0,3.0,78,0.00,,,0.07,0,Wunderground v.1.15,2013-10-25 03:21:00,
2013-10-24 22:30:00,34.9,29.0,30.40,West,259,2.0,7.0,79,0.00,,,0.07,0,Wunderground v.1.15,2013-10-25 03:30:00,
2013-10-24 22:41:00,34.9,29.0,30.40,WNW,283,4.0,5.0,79,0.00,,,0.07,0,Wunderground v.1.15,2013-10-25 03:41:00,
2013-10-24 22:50:00,35.0,28.8,30.40,WNW,288,4.0,4.0,78,0.00,,,0.07,0,Wunderground v.1.15,2013-10-25 03:50:00,
2013-10-24 23:00:00,34.8,28.6,30.40,WNW,283,4.0,9.0,78,0.00,,,0.07,0,Wunderground v.1.15,2013-10-25 04:00:00,
2013-10-24 23:11:00,35.0,28.8,30.40,West,264,4.0,4.0,78,0.00,,,0.07,0,Wunderground v.1.15,2013-10-25 04:11:00,
2013-10-24 23:21:00,34.7,28.5,30.41,West,265,3.0,3.0,78,0.00,,,0.07,0,Wunderground v.1.15,2013-10-25 04:21:00,
2013-10-24 23:30:00,34.5,28.7,30.41,West,276,2.0,2.0,79,0.00,,,0.07,0,Wunderground v.1.15,2013-10-25 04:30:00,
2013-10-24 23:41:00,34.2,28.7,30.41,WSW,254,2.0,2.0,80,0.00,,,0.07,0,Wunderground v.1.15,2013-10-25 04:41:00,
2013-10-24 23:50:00,34.3,28.5,30.41,West,281,3.0,4.0,79,0.00,,,0.07,0,Wunderground v.1.15,2013-10-25 04:50:00,